AFR6733 EGPK-LFPG

Flight info

Callsign AFR6733
Flight time 1h 13m
Altitude 41000
Route SUDBY Z249 OSMEG T256 DCS UL612 EMKUK DCT SFD UM605 HARDY/N0411F290 UM605 XIDIL/N0381F250 UM605 BIBAX
Aircraft B77L/H-SDE1E2E3FGHIJ2J3J4J5M1RWXY/LB1D1

Departure

Time 2026-04-25 17:40
Airport Glasgow Prestwick Airport (EGPK)

Arrival

Time 2026-04-25 18:53
Airport Charles de Gaulle International Airport (LFPG)
Time Latitude Longitude Altitude Speed Heading
2026-04-25 17:05 55.51079 -4.61033 49 ft 0 kts 121°
2026-04-25 17:32 55.51085 -4.61054 49 ft 2 kts 110°
2026-04-25 17:32 55.51089 -4.61079 49 ft 2 kts 96°
2026-04-25 17:32 55.51089 -4.61105 49 ft 2 kts 85°
2026-04-25 17:32 55.51087 -4.61130 49 ft 2 kts 72°
2026-04-25 17:33 55.51082 -4.61155 48 ft 2 kts 60°
2026-04-25 17:33 55.51073 -4.61176 48 ft 2 kts 48°
2026-04-25 17:33 55.51063 -4.61194 48 ft 2 kts 36°
2026-04-25 17:33 55.51053 -4.61205 48 ft 0 kts 30°
2026-04-25 17:36 55.51054 -4.61205 48 ft 0 kts 30°
2026-04-25 17:36 55.51069 -4.61188 48 ft 4 kts 32°
2026-04-25 17:36 55.51104 -4.61141 49 ft 7 kts 48°
2026-04-25 17:37 55.51139 -4.61058 49 ft 10 kts 52°
2026-04-25 17:37 55.51190 -4.60944 49 ft 11 kts 40°
2026-04-25 17:37 55.51257 -4.60978 49 ft 12 kts 313°
2026-04-25 17:37 55.51311 -4.61119 49 ft 15 kts 302°
2026-04-25 17:38 55.51371 -4.61294 49 ft 17 kts 300°
2026-04-25 17:38 55.51414 -4.61409 49 ft 16 kts 308°
2026-04-25 17:38 55.51510 -4.61517 49 ft 15 kts 344°
2026-04-25 17:38 55.51574 -4.61505 50 ft 0 kts 28°
2026-04-25 17:39 55.51583 -4.61496 50 ft 3 kts 28°
2026-04-25 17:39 55.51605 -4.61448 50 ft 7 kts 79°
2026-04-25 17:39 55.51583 -4.61323 49 ft 14 kts 119°
2026-04-25 17:39 55.51463 -4.60976 50 ft 73 kts 121°
2026-04-25 17:40 55.51031 -4.59708 53 ft 163 kts 119°
2026-04-25 17:40 55.50373 -4.57885 811 ft 181 kts 120°
2026-04-25 17:40 55.49802 -4.56203 2126 ft 164 kts 119°
2026-04-25 17:40 55.49180 -4.54372 2856 ft 182 kts 120°
2026-04-25 17:41 55.48507 -4.52429 3621 ft 198 kts 120°
2026-04-25 17:41 55.47772 -4.50312 4397 ft 214 kts 121°
2026-04-25 17:41 55.46964 -4.47986 5171 ft 232 kts 121°
2026-04-25 17:41 55.46088 -4.45512 5986 ft 250 kts 126°
2026-04-25 17:42 55.44814 -4.43382 6796 ft 267 kts 146°
2026-04-25 17:42 55.43221 -4.41608 7815 ft 277 kts 149°
2026-04-25 17:42 55.41584 -4.39853 8952 ft 281 kts 149°
2026-04-25 17:42 55.39936 -4.38071 10075 ft 286 kts 149°
2026-04-25 17:43 55.38232 -4.36220 10894 ft 299 kts 149°
2026-04-25 17:43 55.36436 -4.34267 11697 ft 315 kts 150°
2026-04-25 17:43 55.34507 -4.32170 12595 ft 332 kts 149°
2026-04-25 17:43 55.32515 -4.30007 13458 ft 347 kts 149°
2026-04-25 17:44 55.30445 -4.27763 14288 ft 363 kts 149°
2026-04-25 17:44 55.28269 -4.25407 15147 ft 379 kts 149°
2026-04-25 17:44 55.25973 -4.22924 16078 ft 394 kts 150°
2026-04-25 17:44 55.23641 -4.20406 17131 ft 404 kts 150°
2026-04-25 17:45 55.21249 -4.17826 18202 ft 412 kts 150°
2026-04-25 17:45 55.19627 -4.16079 18932 ft 417 kts 150°
2026-04-25 17:45 55.16313 -4.12514 20384 ft 426 kts 150°
2026-04-25 17:45 55.13889 -4.09511 21369 ft 435 kts 142°
2026-04-25 17:46 55.11698 -4.05822 22292 ft 445 kts 135°
2026-04-25 17:46 55.09571 -4.01904 23221 ft 453 kts 135°
2026-04-25 17:46 55.07394 -3.97885 24151 ft 460 kts 135°
2026-04-25 17:46 55.05218 -3.93875 25170 ft 464 kts 135°
2026-04-25 17:47 55.02996 -3.89793 26183 ft 468 kts 135°
2026-04-25 17:47 55.00760 -3.85696 27138 ft 473 kts 135°
2026-04-25 17:47 54.98487 -3.81540 28071 ft 478 kts 134°
2026-04-25 17:47 54.96193 -3.77355 28948 ft 484 kts 134°
2026-04-25 17:48 54.91562 -3.68935 31149 ft 484 kts 134°
2026-04-25 17:48 54.89267 -3.64776 32587 ft 474 kts 134°
2026-04-25 17:48 54.87007 -3.60686 33959 ft 465 kts 135°
2026-04-25 17:49 54.84768 -3.56643 35056 ft 459 kts 135°
2026-04-25 17:49 54.82575 -3.52691 35752 ft 459 kts 135°
2026-04-25 17:49 54.80358 -3.48704 36294 ft 463 kts 135°
2026-04-25 17:49 54.78133 -3.44707 36990 ft 464 kts 135°
2026-04-25 17:50 54.75923 -3.40745 37867 ft 463 kts 134°
2026-04-25 17:50 54.73616 -3.36880 38663 ft 460 kts 141°
2026-04-25 17:50 54.71046 -3.33643 39267 ft 459 kts 150°
2026-04-25 17:50 54.68193 -3.31062 39765 ft 459 kts 157°
2026-04-25 17:51 54.65251 -3.28824 40219 ft 459 kts 158°
2026-04-25 17:51 54.62347 -3.26649 40550 ft 460 kts 158°
2026-04-25 17:51 54.59390 -3.24438 40828 ft 461 kts 158°
2026-04-25 17:51 54.56472 -3.22259 41095 ft 463 kts 158°
2026-04-25 17:52 54.53513 -3.20052 41183 ft 466 kts 158°
2026-04-25 17:52 54.47578 -3.15633 41191 ft 463 kts 158°
2026-04-25 17:53 54.41715 -3.11280 41191 ft 462 kts 158°
2026-04-25 17:53 54.35826 -3.06920 41192 ft 462 kts 158°
2026-04-25 17:54 54.29916 -3.02559 41192 ft 463 kts 158°
2026-04-25 17:54 54.24026 -2.98225 41196 ft 463 kts 158°
2026-04-25 17:55 54.18111 -2.93888 41199 ft 464 kts 158°
2026-04-25 17:55 54.12208 -2.89572 41200 ft 463 kts 158°
2026-04-25 17:56 54.06299 -2.85266 41199 ft 463 kts 158°
2026-04-25 17:56 54.00405 -2.80984 41198 ft 463 kts 158°
2026-04-25 17:57 53.94503 -2.76707 41205 ft 463 kts 158°
2026-04-25 17:57 53.88588 -2.72433 41205 ft 464 kts 158°
2026-04-25 17:58 53.82603 -2.68125 41207 ft 463 kts 158°
2026-04-25 17:58 53.76701 -2.63890 41205 ft 465 kts 158°
2026-04-25 17:59 53.70746 -2.59629 41200 ft 465 kts 158°
2026-04-25 17:59 53.64814 -2.55398 41201 ft 465 kts 158°
2026-04-25 18:00 53.58867 -2.51170 41199 ft 464 kts 158°
2026-04-25 18:00 53.52922 -2.46955 41197 ft 465 kts 158°
2026-04-25 18:01 53.46957 -2.42739 41199 ft 465 kts 158°
2026-04-25 18:01 53.41021 -2.38556 41194 ft 466 kts 158°
2026-04-25 18:02 53.35032 -2.34349 41194 ft 466 kts 159°
2026-04-25 18:02 53.29015 -2.30135 41192 ft 466 kts 159°
2026-04-25 18:03 53.23043 -2.25966 41194 ft 466 kts 159°
2026-04-25 18:03 53.17091 -2.21823 41189 ft 466 kts 159°
2026-04-25 18:04 53.11109 -2.17672 41186 ft 466 kts 159°
2026-04-25 18:04 53.05135 -2.13539 41180 ft 466 kts 159°
2026-04-25 18:05 52.99153 -2.09414 41179 ft 466 kts 159°
2026-04-25 18:05 52.93200 -2.05320 41178 ft 467 kts 159°
2026-04-25 18:06 52.87187 -2.01197 41179 ft 467 kts 159°
2026-04-25 18:06 52.81180 -1.97091 41181 ft 467 kts 159°
2026-04-25 18:07 52.75193 -1.93011 41185 ft 468 kts 159°
2026-04-25 18:07 52.69183 -1.88927 41179 ft 468 kts 159°
2026-04-25 18:08 52.63150 -1.84840 41186 ft 469 kts 159°
2026-04-25 18:08 52.57131 -1.80774 41188 ft 469 kts 159°
2026-04-25 18:09 52.51120 -1.76727 41186 ft 469 kts 159°
2026-04-25 18:09 52.45067 -1.72663 41190 ft 470 kts 159°
2026-04-25 18:10 52.38997 -1.68599 41188 ft 471 kts 159°
2026-04-25 18:10 52.33012 -1.64426 41191 ft 471 kts 154°
2026-04-25 18:11 52.27187 -1.59553 41187 ft 472 kts 154°
2026-04-25 18:11 52.21332 -1.54689 41187 ft 472 kts 154°
2026-04-25 18:12 52.15496 -1.49889 41188 ft 471 kts 154°
2026-04-25 18:12 52.09647 -1.45109 41185 ft 471 kts 154°
2026-04-25 18:13 52.03782 -1.40340 41185 ft 472 kts 154°
2026-04-25 18:13 51.97949 -1.35451 41182 ft 473 kts 148°
2026-04-25 18:14 51.89997 -1.25777 41185 ft 474 kts 143°
2026-04-25 18:14 51.84868 -1.19361 41182 ft 474 kts 143°
2026-04-25 18:15 51.79662 -1.12874 41182 ft 474 kts 143°
2026-04-25 18:15 51.74456 -1.06411 41186 ft 474 kts 143°
2026-04-25 18:16 51.69226 -0.99939 41180 ft 476 kts 143°
2026-04-25 18:17 51.61357 -0.90238 41184 ft 476 kts 143°
2026-04-25 18:17 51.56193 -0.83895 41180 ft 476 kts 144°
2026-04-25 18:18 51.50909 -0.77426 41177 ft 475 kts 144°
2026-04-25 18:18 51.45655 -0.71011 41186 ft 476 kts 144°
2026-04-25 18:19 51.40382 -0.64594 41180 ft 476 kts 144°
2026-04-25 18:19 51.35089 -0.58170 41187 ft 476 kts 144°
2026-04-25 18:20 51.29811 -0.51783 41187 ft 476 kts 144°
2026-04-25 18:20 51.24526 -0.45407 41189 ft 476 kts 144°
2026-04-25 18:21 51.19245 -0.39055 41185 ft 476 kts 144°
2026-04-25 18:21 51.13952 -0.32707 41182 ft 476 kts 144°
2026-04-25 18:22 51.08682 -0.26405 41185 ft 476 kts 145°
2026-04-25 18:22 51.03409 -0.20119 41185 ft 477 kts 145°
2026-04-25 18:23 50.98080 -0.13784 41185 ft 477 kts 145°
2026-04-25 18:23 50.92800 -0.07525 41186 ft 477 kts 145°
2026-04-25 18:24 50.87591 -0.01368 41184 ft 476 kts 145°
2026-04-25 18:24 50.82303 0.04865 41185 ft 476 kts 145°
2026-04-25 18:25 50.76985 0.11113 41185 ft 476 kts 145°
2026-04-25 18:25 50.71809 0.17537 41168 ft 473 kts 142°
2026-04-25 18:26 50.66710 0.24119 41181 ft 480 kts 142°
2026-04-25 18:26 50.61539 0.30750 40901 ft 477 kts 142°
2026-04-25 18:26 50.58991 0.34007 40506 ft 472 kts 142°
2026-04-25 18:27 50.56454 0.37240 39838 ft 474 kts 142°
2026-04-25 18:27 50.53884 0.40508 38974 ft 477 kts 142°
2026-04-25 18:27 50.51308 0.43778 38100 ft 480 kts 142°
2026-04-25 18:27 50.48742 0.47030 37255 ft 481 kts 142°
2026-04-25 18:28 50.46150 0.50309 36502 ft 482 kts 142°
2026-04-25 18:28 50.43560 0.53582 35869 ft 483 kts 142°
2026-04-25 18:28 50.40921 0.56910 35192 ft 484 kts 142°
2026-04-25 18:29 50.35690 0.63491 33216 ft 497 kts 141°
2026-04-25 18:29 50.32949 0.66932 32225 ft 500 kts 142°
2026-04-25 18:30 50.25123 0.76732 31139 ft 472 kts 142°
2026-04-25 18:30 50.22587 0.79898 30470 ft 470 kts 142°
2026-04-25 18:30 50.20024 0.83093 29596 ft 473 kts 142°
2026-04-25 18:30 50.17453 0.86292 28599 ft 477 kts 142°
2026-04-25 18:31 50.14876 0.89496 27581 ft 480 kts 142°
2026-04-25 18:31 50.12266 0.92734 26520 ft 484 kts 142°
2026-04-25 18:31 50.09640 0.95988 25472 ft 486 kts 142°
2026-04-25 18:31 50.07010 0.99209 24451 ft 487 kts 145°
2026-04-25 18:32 50.04157 1.01966 23451 ft 483 kts 154°
2026-04-25 18:32 50.01145 1.04300 22469 ft 480 kts 155°
2026-04-25 18:32 49.98195 1.06521 21509 ft 476 kts 155°
2026-04-25 18:32 49.95211 1.08761 20531 ft 472 kts 155°
2026-04-25 18:33 49.92291 1.10951 19698 ft 465 kts 155°
2026-04-25 18:33 49.89544 1.13011 19239 ft 451 kts 155°
2026-04-25 18:33 49.86751 1.15103 18806 ft 436 kts 155°
2026-04-25 18:33 49.84065 1.17113 18399 ft 422 kts 155°
2026-04-25 18:34 49.81477 1.19046 17997 ft 410 kts 155°
2026-04-25 18:34 49.78928 1.20949 17570 ft 399 kts 155°
2026-04-25 18:34 49.76474 1.22778 17158 ft 389 kts 155°
2026-04-25 18:34 49.74078 1.24563 16726 ft 381 kts 155°
2026-04-25 18:35 49.71702 1.26331 16306 ft 373 kts 155°
2026-04-25 18:35 49.69385 1.28053 15897 ft 365 kts 155°
2026-04-25 18:35 49.67124 1.29731 15474 ft 361 kts 155°
2026-04-25 18:35 49.64868 1.31404 15058 ft 359 kts 155°
2026-04-25 18:36 49.62639 1.33056 14634 ft 357 kts 155°
2026-04-25 18:36 49.60415 1.34702 14241 ft 354 kts 155°
2026-04-25 18:36 49.58202 1.36339 13920 ft 353 kts 155°
2026-04-25 18:36 49.55991 1.37972 13597 ft 351 kts 154°
2026-04-25 18:37 49.53801 1.39588 13247 ft 349 kts 154°
2026-04-25 18:37 49.51622 1.41195 12921 ft 347 kts 154°
2026-04-25 18:37 49.49441 1.42801 12596 ft 345 kts 154°
2026-04-25 18:37 49.47310 1.44370 12282 ft 344 kts 154°
2026-04-25 18:38 49.45159 1.45951 11956 ft 342 kts 154°
2026-04-25 18:38 49.43010 1.47529 11639 ft 341 kts 154°
2026-04-25 18:38 49.40890 1.49085 11317 ft 339 kts 154°
2026-04-25 18:38 49.38759 1.50647 10991 ft 337 kts 154°
2026-04-25 18:39 49.36646 1.52194 10653 ft 336 kts 154°
2026-04-25 18:39 49.34558 1.53722 10352 ft 333 kts 154°
2026-04-25 18:39 49.32542 1.55308 10165 ft 320 kts 144°
2026-04-25 18:39 49.31021 1.57688 10142 ft 302 kts 120°
2026-04-25 18:40 49.30202 1.60607 10158 ft 297 kts 104°
2026-04-25 18:40 49.29434 1.63499 10152 ft 297 kts 122°
2026-04-25 18:40 49.27965 1.65698 10152 ft 298 kts 147°
2026-04-25 18:40 49.26147 1.67285 10164 ft 298 kts 152°
2026-04-25 18:41 49.24316 1.68787 10160 ft 298 kts 152°
2026-04-25 18:41 49.22493 1.70275 10154 ft 298 kts 152°
2026-04-25 18:41 49.20676 1.71748 10154 ft 299 kts 152°
2026-04-25 18:41 49.18823 1.73245 10157 ft 299 kts 152°
2026-04-25 18:42 49.16990 1.74717 10153 ft 299 kts 152°
2026-04-25 18:42 49.15771 1.75694 10148 ft 299 kts 152°
2026-04-25 18:42 49.13309 1.77666 10152 ft 299 kts 152°
2026-04-25 18:42 49.11462 1.79146 10146 ft 299 kts 152°
2026-04-25 18:43 49.09615 1.80628 10144 ft 299 kts 152°
2026-04-25 18:43 49.07801 1.82086 10145 ft 298 kts 152°
2026-04-25 18:43 49.05960 1.83570 10148 ft 298 kts 152°
2026-04-25 18:43 49.04115 1.85062 10048 ft 300 kts 152°
2026-04-25 18:44 49.02294 1.86538 9749 ft 296 kts 152°
2026-04-25 18:44 49.00542 1.88072 9424 ft 291 kts 141°
2026-04-25 18:44 48.99234 1.90370 9052 ft 286 kts 116°
2026-04-25 18:44 48.98645 1.93197 8673 ft 281 kts 97°
2026-04-25 18:45 48.98383 1.96131 8295 ft 279 kts 96°
2026-04-25 18:45 48.98144 1.99072 7872 ft 278 kts 95°
2026-04-25 18:45 48.97911 2.01953 7501 ft 276 kts 95°
2026-04-25 18:45 48.97675 2.04858 7126 ft 275 kts 95°
2026-04-25 18:46 48.97443 2.07711 6759 ft 265 kts 95°
2026-04-25 18:46 48.97226 2.10350 6401 ft 245 kts 95°
2026-04-25 18:46 48.97024 2.12831 6046 ft 227 kts 94°
2026-04-25 18:46 48.96970 2.15134 5754 ft 207 kts 85°
2026-04-25 18:47 48.97077 2.17261 5497 ft 198 kts 83°
2026-04-25 18:47 48.97208 2.19316 5242 ft 194 kts 82°
2026-04-25 18:47 48.97337 2.21327 4989 ft 191 kts 83°
2026-04-25 18:47 48.97460 2.23328 4734 ft 190 kts 83°
2026-04-25 18:48 48.97575 2.25320 4477 ft 189 kts 83°
2026-04-25 18:48 48.97687 2.27306 4221 ft 188 kts 83°
2026-04-25 18:48 48.97798 2.29274 3964 ft 187 kts 83°
2026-04-25 18:48 48.97907 2.31232 3708 ft 185 kts 83°
2026-04-25 18:49 48.98016 2.33172 3456 ft 184 kts 83°
2026-04-25 18:49 48.98122 2.35095 3205 ft 183 kts 83°
2026-04-25 18:49 48.98230 2.37035 2950 ft 183 kts 83°
2026-04-25 18:49 48.98328 2.38808 2717 ft 181 kts 83°
2026-04-25 18:50 48.98432 2.40705 2468 ft 180 kts 82°
2026-04-25 18:50 48.98535 2.42592 2219 ft 177 kts 82°
2026-04-25 18:50 48.98634 2.44387 1978 ft 162 kts 82°
2026-04-25 18:50 48.98720 2.45966 1764 ft 146 kts 81°
2026-04-25 18:51 48.98803 2.47462 1569 ft 139 kts 81°
2026-04-25 18:51 48.98854 2.48439 1441 ft 139 kts 81°
2026-04-25 18:51 48.98959 2.50368 1184 ft 137 kts 81°
2026-04-25 18:51 48.99037 2.51816 994 ft 138 kts 82°
2026-04-25 18:52 48.99097 2.53287 827 ft 141 kts 82°
2026-04-25 18:52 48.99188 2.54773 643 ft 142 kts 81°
2026-04-25 18:52 48.99273 2.56240 443 ft 138 kts 83°
2026-04-25 18:52 48.99348 2.57627 349 ft 113 kts 85°
2026-04-25 18:53 48.99397 2.58534 338 ft 61 kts 85°
2026-04-25 18:53 48.99424 2.59048 332 ft 28 kts 84°
2026-04-25 18:53 48.99465 2.59249 331 ft 19 kts 65°
2026-04-25 18:53 48.99505 2.59386 330 ft 13 kts 65°
2026-04-25 18:54 48.99586 2.59649 331 ft 12 kts 64°
2026-04-25 18:54 48.99624 2.59697 331 ft 6 kts 359°
2026-04-25 18:54 48.99675 2.59692 332 ft 8 kts 354°
2026-04-25 18:55 48.99750 2.59682 333 ft 12 kts 354°
2026-04-25 18:55 48.99837 2.59670 334 ft 5 kts 355°
2026-04-25 18:55 48.99877 2.59665 334 ft 5 kts 354°
2026-04-25 18:55 48.99900 2.59662 335 ft 0 kts 355°
2026-04-25 18:56 48.99918 2.59660 335 ft 5 kts 355°
2026-04-25 18:56 48.99969 2.59654 336 ft 9 kts 355°
2026-04-25 18:56 49.00044 2.59646 338 ft 10 kts 347°
2026-04-25 18:57 49.00077 2.59564 339 ft 10 kts 270°
2026-04-25 18:57 49.00072 2.59452 339 ft 10 kts 264°
2026-04-25 18:57 49.00065 2.59320 339 ft 14 kts 264°
2026-04-25 18:57 49.00059 2.59208 339 ft 16 kts 265°
2026-04-25 18:58 49.00046 2.58982 340 ft 15 kts 268°
2026-04-25 18:58 49.00030 2.58663 343 ft 14 kts 266°
2026-04-25 18:58 49.00022 2.58517 345 ft 13 kts 264°
2026-04-25 18:59 49.00008 2.58259 348 ft 11 kts 265°
2026-04-25 18:59 48.99995 2.58034 351 ft 9 kts 265°
2026-04-25 19:00 48.99983 2.57792 354 ft 14 kts 265°
2026-04-25 19:00 48.99975 2.57638 355 ft 14 kts 265°
2026-04-25 19:01 48.99959 2.57340 358 ft 13 kts 265°
2026-04-25 19:01 48.99952 2.57198 358 ft 13 kts 264°
2026-04-25 19:01 48.99944 2.57055 359 ft 13 kts 264°
2026-04-25 19:01 48.99936 2.56911 359 ft 13 kts 265°
2026-04-25 19:02 48.99920 2.56602 359 ft 15 kts 264°
2026-04-25 19:02 48.99911 2.56437 358 ft 16 kts 265°
2026-04-25 19:02 48.99901 2.56253 355 ft 17 kts 265°
2026-04-25 19:03 48.99889 2.55961 351 ft 9 kts 276°
2026-04-25 19:03 48.99915 2.55804 349 ft 13 kts 285°
2026-04-25 19:03 48.99961 2.55675 347 ft 14 kts 304°
2026-04-25 19:04 48.99978 2.55341 342 ft 18 kts 266°
2026-04-25 19:04 48.99967 2.55142 340 ft 19 kts 264°
2026-04-25 19:05 48.99945 2.54727 338 ft 19 kts 265°
2026-04-25 19:05 48.99924 2.54302 336 ft 20 kts 263°
2026-04-25 19:05 48.99936 2.54211 335 ft 5 kts 335°
2026-04-25 19:06 48.99971 2.54203 336 ft 2 kts 357°
2026-04-25 19:06 48.99996 2.54201 336 ft 0 kts 356°